Вернуться в каталог

USA 181

АктивенВоенныеLEO
NORAD 28537·PAYLOAD·🇺🇸 United States

Запущен Feb 3, 2005 с Cape Canaveral Space Force Station

Loading…

Ближайшие Пролёты (ближайшие 24 часа)

TLE

УстаревшееSource: Mike McCants

Эпоха: Sep 5, 2026, 00:45 UTC

1 28537U 05004A   26248.03181173 0.00000000  00000-0  00000-0 0    03
2 28537  63.3938 220.8267 0565010   5.1451 354.8549 13.41279753    09

Отслеживайте USA 181 в реальном времени с AllMySat

Download on the App Store